15min,AgWx,beryljct,423,06NOV2018:00:00:00,34.3,12.91,32.7,29.2,32.7,34.4,29.0,61,71,56,0.384,20.6,21.7,20.1,4.143,1.6,184,66,5.2,-0.00011,-0.00013,48.0,49.7,22,0,0,35.3,8.36,0.00,0.00
15min,AgWx,beryljct,423,06NOV2018:00:15:00,33.4,12.91,29.6,30.7,29.0,30.7,28.5,70,75,68,0.396,20.6,22.6,19.7,2.192,3.1,197,10,5.0,-0.00004,-0.00004,47.8,49.6,22,0,0,35.8,8.37,0.00,0.00
15min,AgWx,beryljct,423,06NOV2018:00:30:00,32.7,12.9,31.0,29.3,30.7,31.5,29.3,69,72,67,0.376,21.8,22.6,20.3,3.858,2.2,171,3.4,3.9,-0.00008,-0.00010,47.5,49.6,22,0,0,35.6,8.37,0.00,0.00
15min,AgWx,beryljct,423,06NOV2018:00:45:00,32.2,12.89,30.9,30.6,30.2,31.1,29.2,69,71,67,0.402,21.3,22.2,20.0,3.551,3.9,210,8.5,5.0,-0.00001,-0.00000,47.3,49.5,22,0,0,35.7,8.37,0.00,0.00
15min,AgWx,beryljct,423,06NOV2018:01:00:00,32.0,12.9,33.8,31.8,33.2,34.3,30.7,62,70,59,0.394,21.6,22.4,20.6,4.911,3.6,202,7.2,5.9,-0.00000,0.00002,47.1,49.5,22,0,0,35.9,8.37,0.00,0.00
15min,AgWx,beryljct,423,06NOV2018:01:15:00,32.3,12.88,33.4,30.4,33.1,35.8,29.9,62,68,56,0.384,21.4,22.3,20.2,3.749,3.7,288,43,7.6,0.00001,0.00003,46.9,49.4,22,0,0,35.4,8.37,0.00,0.00
15min,AgWx,beryljct,423,06NOV2018:01:30:00,32.1,12.73,30.5,29.4,30.2,31.5,28.7,67,70,63,0.376,20.4,21.5,19.6,3.069,2.8,341,47,6.6,-0.00004,-0.00004,46.7,49.3,22,0,0,35.7,8.37,0.00,0.00
15min,AgWx,beryljct,423,06NOV2018:01:45:00,31.4,12.84,28.4,28.6,28.0,29.9,26.3,70,74,66,0.367,19.5,20.6,18.4,0.504,0.7,343,28,3.2,-0.00016,-0.00023,46.5,49.3,22,0,0,35.6,8.37,0.00,0.00
15min,AgWx,beryljct,423,06NOV2018:02:00:00,30.7,12.85,29.7,28.9,29.2,30.2,28.2,69,75,65,0.380,20.3,21.5,19.5,0.943,1.0,8.9,23,2.6,-0.00015,-0.00020,46.3,49.2,22,0,0,35.4,8.37,0.00,0.00
15min,AgWx,beryljct,423,06NOV2018:02:15:00,30.0,12.81,27.1,26.4,26.9,29.2,24.8,69,72,67,0.329,18.1,20.6,16.2,1.973,3.1,349,15,5.9,-0.00004,-0.00003,46.1,49.1,22,0,0,35.5,8.37,0.00,0.00
15min,AgWx,beryljct,423,06NOV2018:02:30:00,29.1,12.79,25.4,24.8,25.0,26.3,23.7,72,77,68,0.325,17.3,18.6,15.8,3.201,2.8,17,27,5.6,-0.00005,-0.00006,45.9,49.0,22,0,0,35.6,8.37,0.00,0.00
15min,AgWx,beryljct,423,06NOV2018:02:45:00,28.3,12.8,25.2,24.4,24.7,26.7,23.8,70,74,65,0.330,16.1,17.5,14.6,0.745,2.7,352,35,4.8,-0.00005,-0.00005,45.7,48.9,22,0,0,35.5,8.37,0.00,0.00
15min,AgWx,beryljct,423,06NOV2018:03:00:00,27.5,12.78,25.3,24.9,24.7,25.5,23.8,70,74,67,0.320,16.3,17.4,15.4,1.184,0.4,315,14,1.6,-0.00018,-0.00027,45.5,48.9,22,0,0,35.8,8.37,0.00,0.00
15min,AgWx,beryljct,423,06NOV2018:03:15:00,27.3,12.78,29.1,28.1,28.1,30.4,25.1,65,70,59,0.347,17.8,18.8,16.7,1.885,3.0,255,0.6,4.7,-0.00003,-0.00003,45.3,48.8,22,0,0,35.6,8.37,0.00,0.00
15min,AgWx,beryljct,423,06NOV2018:03:30:00,27.3,12.77,28.0,25.3,27.8,29.8,25.3,68,75,61,0.339,18.7,20.0,17.5,3.683,2.2,202,59,5.8,-0.00008,-0.00009,45.1,48.7,22,0,0,35.7,8.37,0.00,0.00
15min,AgWx,beryljct,423,06NOV2018:03:45:00,27.0,12.76,24.7,25.3,24.2,25.3,23.3,73,74,71,0.337,16.7,17.9,15.6,3.113,4.0,190,10,7.3,-0.00002,-0.00001,44.9,48.6,22,0,0,35.6,8.37,0.00,0.00
15min,AgWx,beryljct,423,06NOV2018:04:00:00,26.6,12.75,25.5,25.5,25.0,26.3,23.8,73,74,70,0.344,17.4,18.5,15.9,0,2.9,195,19,4.3,-0.00005,-0.00005,44.7,48.5,22,0,0,35.6,8.37,0.00,0.00
15min,AgWx,beryljct,423,06NOV2018:04:15:00,26.3,12.74,28.6,30.5,27.4,30.5,25.6,71,75,68,0.402,19.2,21.9,17.2,1.491,0.7,220,15,3.1,-0.00017,-0.00024,44.5,48.4,22,0,0,35.5,8.37,0.00,0.00
15min,AgWx,beryljct,423,06NOV2018:04:30:00,26.6,12.74,32.3,31.8,31.5,33.8,29.3,63,69,58,0.383,20.2,22.0,18.9,3.201,2.3,284,17,4.2,-0.00007,-0.00007,44.3,48.3,22,0,0,35.5,8.37,0.00,0.00
15min,AgWx,beryljct,423,06NOV2018:04:45:00,27.3,12.74,31.3,29.7,31.1,32.8,29.7,62,64,59,0.354,19.6,21.2,18.5,2.083,2.1,336,23,4.0,-0.00007,-0.00008,44.1,48.3,22,0,0,35.5,8.37,0.00,0.00
15min,AgWx,beryljct,423,06NOV2018:05:00:00,27.7,12.73,31.1,27.9,30.8,32.4,27.9,62,67,59,0.344,19.5,20.8,17.5,4.428,3.1,322,11,4.5,-0.00002,-0.00001,43.9,48.2,22,0,0,35.6,8.37,0.00,0.00
15min,AgWx,beryljct,423,06NOV2018:05:15:00,27.6,12.71,28.7,29.2,28.1,29.8,26.0,67,73,63,0.361,18.7,20.6,16.3,2.324,3.4,326,8.7,4.6,-0.00002,-0.00002,43.7,48.1,22,0,0,35.8,8.37,0.00,0.00
15min,AgWx,beryljct,423,06NOV2018:05:30:00,27.1,12.59,28.8,29.3,28.2,29.3,27.2,68,71,64,0.374,19.0,20.6,17.3,0,1.0,319,0.1,2.2,-0.00015,-0.00020,43.5,48.0,22,0,0,35.5,8.37,0.00,0.00
15min,AgWx,beryljct,423,06NOV2018:05:45:00,26.5,12.71,29.4,27.4,29.0,30.7,27.3,67,70,64,0.356,19.5,20.4,18.4,2.368,1.0,33,10,2.7,-0.00015,-0.00020,43.3,47.9,22,0,0,35.5,8.38,0.00,0.00
15min,AgWx,beryljct,423,06NOV2018:06:00:00,26.2,12.71,28.4,29.1,27.7,29.1,26.7,70,71,67,0.372,19.1,20.1,17.6,0.68,1.0,5.3,11,2.2,-0.00014,-0.00019,43.1,47.8,22,0,0,35.7,8.38,0.00,0.00
15min,AgWx,beryljct,423,06NOV2018:06:15:00,26.2,12.72,30.2,28.7,29.7,30.5,28.2,65,69,63,0.341,19.4,20.3,18.1,1.447,1.0,333,2.4,2.5,-0.00015,-0.00020,43.0,47.7,22,0,0,35.5,8.37,0.00,0.00
15min,AgWx,beryljct,423,06NOV2018:06:30:00,26.3,12.7,26.5,23.1,26.6,29.1,23.1,68,71,64,0.300,17.3,18.8,15.1,3.924,3.5,350,7.3,4.5,0.00016,0.00027,42.8,47.6,22,0,0,35.3,8.38,0.00,0.00
15min,AgWx,beryljct,423,06NOV2018:06:45:00,25.6,12.55,22.5,23.1,22.0,23.4,20.3,76,79,71,0.317,15.6,17.1,14.1,3.201,3.2,326,13,3.9,0.00010,0.00017,42.6,47.5,22,0,0,35.6,8.38,0.00,0.00
15min,AgWx,beryljct,423,06NOV2018:07:00:00,24.9,12.69,25.0,24.5,24.2,25.5,22.8,74,77,69,0.329,17.0,18.3,15.8,4.121,4.0,314,1.4,5.0,0.00014,0.00024,42.5,47.4,22,1,0,35.6,8.38,0.00,0.00
15min,AgWx,beryljct,423,06NOV2018:07:15:00,24.4,12.71,24.5,22.7,24.1,25.3,22.7,74,75,72,0.314,16.9,18.1,15.8,3.179,3.4,315,2.1,4.2,0.00014,0.00023,42.3,47.3,22,8,0,35.7,8.38,0.00,0.00
15min,AgWx,beryljct,423,06NOV2018:07:30:00,24.3,12.91,26.3,27.2,25.3,27.8,22.7,71,77,65,0.329,17.3,18.6,15.8,0.329,3.1,325,25,4.6,0.00026,0.00036,42.2,47.2,22,43,0,35.9,8.38,0.00,0.00
15min,AgWx,beryljct,423,06NOV2018:07:45:00,25.1,13.27,26.5,26.0,26.2,27.0,25.6,74,81,66,0.387,18.9,21.0,17.1,0,0.5,80,5.2,3.5,0.00028,0.00031,42.0,47.1,22,81,0,36.1,8.38,0.00,0.00
15min,AgWx,beryljct,423,06NOV2018:08:00:00,26.5,13.78,26.6,26.1,26.2,27.6,25.1,79,83,74,0.396,20.7,21.7,19.6,1.008,1.1,88,7.8,3.2,0.00039,0.00044,41.9,47.0,22,121,0,38.4,8.37,0.00,0.00
15min,AgWx,beryljct,423,06NOV2018:08:15:00,28.2,14.85,26.8,27.3,26.3,27.3,25.8,81,83,80,0.406,21.3,22.1,20.8,0,1.6,118,11,3.3,0.00050,0.00057,41.7,46.9,22,162,0,40.4,8.37,0.00,0.00
15min,AgWx,beryljct,423,06NOV2018:08:30:00,30.1,14.81,29.0,29.2,28.4,29.2,27.3,78,81,75,0.421,22.4,23.2,21.7,1.052,0.7,129,0.1,2.0,0.00067,0.00073,41.6,46.9,22,204,0,46.3,8.37,0.00,0.00
15min,AgWx,beryljct,423,06NOV2018:08:45:00,32.4,14.78,30.6,31.5,30.0,31.5,29.1,75,77,71,0.422,23.0,23.8,22.3,0.088,1.7,131,0.8,2.9,0.00084,0.00094,41.5,46.8,22,248,0,49.0,8.37,0.00,0.00
15min,AgWx,beryljct,423,06NOV2018:09:00:00,34.8,14.76,33.4,33.9,32.8,33.9,31.6,68,70,64,0.436,23.4,24.0,22.8,0,0.6,104,10,3.0,0.00105,0.00115,41.4,46.7,22,290,0,53.5,8.37,0.00,0.00
15min,AgWx,beryljct,423,06NOV2018:09:15:00,37.6,14.73,35.2,35.6,34.7,35.6,34.0,64,66,61,0.430,23.6,24.6,23.1,2.477,0.8,86,21,2.7,0.00126,0.00138,41.3,46.6,22,332,0,57.0,8.37,0.00,0.00
15min,AgWx,beryljct,423,06NOV2018:09:30:00,40.2,14.62,36.3,36.3,35.9,36.5,35.6,59,62,57,0.422,22.8,23.9,21.8,3.551,3.1,56,26,5.1,0.00147,0.00172,41.3,46.5,22,372,0,54.1,8.37,0.00,0.00
15min,AgWx,beryljct,423,06NOV2018:09:45:00,42.1,14.59,37.5,37.6,37.1,37.7,36.3,57,60,54,0.418,23.1,24.3,21.8,5.809,3.0,57,11,6.0,0.00166,0.00192,41.3,46.4,22,410,0,54.6,8.37,0.00,0.00
15min,AgWx,beryljct,423,06NOV2018:10:00:00,43.7,14.64,38.5,39.2,38.1,39.2,37.5,54,56,52,0.447,22.9,24.4,22.1,1.71,3.0,57,18,5.7,0.00184,0.00214,41.4,46.3,22,446,0,55.5,8.37,0.00,0.00
15min,AgWx,beryljct,423,06NOV2018:10:15:00,45.2,14.55,40.1,40.5,39.7,40.5,39.1,51,55,48,0.443,23.1,24.4,21.9,2.872,3.6,55,19,7.6,0.00204,0.00240,41.5,46.3,22,479,0,57.4,8.36,0.00,0.00
15min,AgWx,beryljct,423,06NOV2018:10:30:00,46.4,14.15,41.6,41.9,41.2,42.0,40.5,49,53,46,0.430,23.5,25.7,22.1,7.344,5.0,40,18,9.1,0.00224,0.00270,41.6,46.2,22,507,0,57.0,8.36,0.00,0.00
15min,AgWx,beryljct,423,06NOV2018:10:45:00,47.2,14.12,42.6,42.8,42.3,42.8,42.0,47,50,42,0.394,23.6,25.1,21.4,11.11,8.8,37,17,12.2,0.00243,0.00309,41.8,46.1,22,534,0,54.1,8.36,0.00,0.00
15min,AgWx,beryljct,423,06NOV2018:11:00:00,47.6,14.08,43.5,43.7,43.1,43.9,42.5,45,49,42,0.469,23.3,25.5,21.2,8,8.1,30,15,11.9,0.00257,0.00325,42.0,46.1,22,556,0,54.8,8.36,0.00,0.00
15min,AgWx,beryljct,423,06NOV2018:11:15:00,48.2,14.08,44.1,43.9,43.9,44.3,43.6,44,48,41,0.433,23.4,26.1,21.6,6.686,7.4,25,15,11.8,0.00268,0.00335,42.3,46.0,22,576,0,55.8,8.36,0.00,0.00
15min,AgWx,beryljct,423,06NOV2018:11:30:00,48.9,14.05,44.6,44.7,44.3,45.0,43.8,45,48,41,0.452,24.2,25.8,22.2,7.168,6.1,36,18,8.9,0.00274,0.00334,42.6,46.0,22,592,0,57.4,8.35,0.00,0.00
15min,AgWx,beryljct,423,06NOV2018:11:45:00,49.5,14.06,45.3,45.5,45.0,45.7,44.6,44,48,40,0.461,24.2,26.7,22.2,8.64,7.0,45,14,11.4,0.00283,0.00350,42.9,45.9,22,604,0,57.5,8.35,0.00,0.00
15min,AgWx,beryljct,423,06NOV2018:12:00:00,50.2,14.05,46.2,46.8,45.9,47.1,45.2,41,48,37,0.458,23.3,27.3,20.9,7.673,5.5,27,26,10.7,0.00292,0.00355,43.3,45.9,22,612,0,58.8,8.35,0.00,0.00
15min,AgWx,beryljct,423,06NOV2018:12:15:00,50.9,14.02,46.7,46.7,46.5,47.4,45.9,40,44,36,0.397,23.5,26.7,21.0,2.411,5.0,44,20,9.7,0.00297,0.00358,43.7,45.9,22,617,0,59.7,8.35,0.00,0.00
15min,AgWx,beryljct,423,06NOV2018:12:30:00,51.6,14.01,47.6,47.9,47.3,48.2,46.6,38,44,34,0.451,22.7,26.1,20.1,9.71,6.0,27,21,11.8,0.00305,0.00376,44.1,45.9,22,617,0,59.3,8.34,0.00,0.00
15min,AgWx,beryljct,423,06NOV2018:12:45:00,52.3,13.98,48.3,48.2,48.1,48.8,47.6,37,45,32,0.367,23.3,28.0,19.7,7.87,7.6,25,17,11.1,0.00312,0.00395,44.5,46.0,22,613,0,57.7,8.34,0.00,0.00
15min,AgWx,beryljct,423,06NOV2018:13:00:00,52.9,13.95,48.8,48.7,48.5,49.0,48.1,33,40,31,0.384,20.9,25.4,19.3,8.83,6.6,8.6,16,10.9,0.00313,0.00393,45.0,46.0,22,605,0,57.7,8.34,0.00,0.00
15min,AgWx,beryljct,423,06NOV2018:13:15:00,53.4,13.97,49.0,49.0,48.8,49.8,48.2,34,42,30,0.470,21.3,27.0,18.3,6.292,6.5,17,34,10.8,0.00309,0.00389,45.5,46.1,22,595,0,57.4,8.34,0.00,0.00
15min,AgWx,beryljct,423,06NOV2018:13:30:00,53.9,13.93,49.3,48.9,49.2,50.1,48.4,34,41,30,0.386,21.7,26.2,18.8,7.015,6.2,32,23,11.5,0.00303,0.00380,45.9,46.1,22,580,0,57.5,8.34,0.00,0.00
15min,AgWx,beryljct,423,06NOV2018:13:45:00,54.4,13.93,49.8,49.9,49.5,50.0,48.9,33,39,29,0.472,21.9,25.7,18.6,6.335,6.2,36,18,9.8,0.00296,0.00374,46.3,46.2,22,561,0,57.3,8.33,0.00,0.00
15min,AgWx,beryljct,423,06NOV2018:14:00:00,55.0,13.89,50.2,50.4,50.0,50.4,49.3,33,40,29,0.370,21.8,26.8,18.7,7.892,5.6,26,28,10.3,0.00279,0.00351,46.8,46.3,22,525,0,57.2,8.33,0.00,0.00
15min,AgWx,beryljct,423,06NOV2018:14:15:00,55.5,13.85,50.4,50.4,50.3,50.9,49.9,31,36,29,0.364,21.1,24.9,19.3,4.209,5.3,32,19,11.3,0.00264,0.00335,47.2,46.4,22,491,0,56.3,8.33,0.00,0.00
15min,AgWx,beryljct,423,06NOV2018:14:30:00,56.1,13.87,50.7,50.5,50.6,51.3,50.3,32,39,27,0.408,21.7,27.1,18.0,4.297,4.6,43,22,10.5,0.00252,0.00317,47.6,46.5,22,476,0,56.4,8.33,0.00,0.00
15min,AgWx,beryljct,423,06NOV2018:14:45:00,56.6,13.85,51.5,51.7,51.2,51.8,50.6,30,35,26,0.378,20.7,24.5,17.7,5.283,5.6,18,25,8.9,0.00248,0.00323,48.1,46.6,22,444,0,55.7,8.33,0.00,0.00
15min,AgWx,beryljct,423,06NOV2018:15:00:00,57.1,13.87,51.3,51.5,51.2,51.8,50.7,30,37,26,0.347,20.5,26.5,17.7,3.091,3.7,30,31,8.4,0.00218,0.00274,48.5,46.7,22,418,0,56.8,8.33,0.00,0.00
15min,AgWx,beryljct,423,06NOV2018:15:15:00,57.6,13.85,51.7,51.8,51.5,51.9,51.2,29,36,25,0.369,20.0,25.7,17.1,3.836,4.6,18,18,9.2,0.00209,0.00273,48.8,46.8,22,381,0,56.8,8.33,0.00,0.00
15min,AgWx,beryljct,423,06NOV2018:15:30:00,57.9,13.81,51.7,51.7,51.6,52.2,51.3,31,35,27,0.397,21.6,24.9,18.8,4.297,5.1,32,14,8.9,0.00192,0.00259,49.2,47.0,22,342,0,56.6,8.33,0.00,0.00
15min,AgWx,beryljct,423,06NOV2018:15:45:00,58.0,13.8,51.8,51.6,51.7,52.1,51.3,28,33,26,0.401,19.9,24.2,17.8,5.656,3.9,15,22,6.8,0.00160,0.00216,49.4,47.1,22,301,0,56.7,8.33,0.00,0.00
15min,AgWx,beryljct,423,06NOV2018:16:00:00,57.9,13.8,51.7,51.6,51.6,51.7,51.5,33,39,28,0.440,23.0,27.6,19.9,5.831,4.5,52,13,7.5,0.00142,0.00199,49.7,47.2,22,259,0,56.5,8.33,0.00,0.00
15min,AgWx,beryljct,423,06NOV2018:16:15:00,57.4,13.85,51.4,51.3,51.3,51.6,51.2,31,36,27,0.394,21.7,25.2,18.7,2.74,4.9,59,20,7.3,0.00125,0.00186,49.8,47.4,22,216,0,54.4,8.33,0.00,0.00
15min,AgWx,beryljct,423,06NOV2018:16:30:00,56.8,13.87,51.4,51.0,51.2,51.4,51.0,31,36,27,0.408,21.7,25.0,18.6,4.209,4.7,40,10,7.8,0.00101,0.00157,50.0,47.5,22,175,0,52.5,8.33,0.00,0.00
15min,AgWx,beryljct,423,06NOV2018:16:45:00,56.0,13.91,50.9,50.5,50.7,51.0,50.3,33,39,29,0.428,23.0,26.5,19.8,5.831,4.6,52,10,6.1,0.00050,0.00067,50.1,47.6,22,134,0,51.0,8.33,0.00,0.00
15min,AgWx,beryljct,423,06NOV2018:17:00:00,54.9,13.92,50.0,49.6,49.8,50.5,49.4,35,38,31,0.388,23.1,25.7,20.4,5.393,4.9,31,12,6.9,0.00043,0.00058,50.2,47.7,22,96,0,49.2,8.33,0.00,0.00
15min,AgWx,beryljct,423,06NOV2018:17:15:00,53.2,13.33,48.8,48.3,48.8,49.6,48.3,34,38,32,0.381,21.7,24.6,20.5,4.362,4.3,20,5.3,5.9,0.00030,0.00042,50.2,47.9,22,50,0,47.1,8.33,0.00,0.00
15min,AgWx,beryljct,423,06NOV2018:17:30:00,51.1,13.26,48.1,45.8,48.1,48.4,45.8,32,37,32,0.387,20.0,21.0,19.7,2.346,4.2,8.1,11,5.9,0.00022,0.00033,50.2,48.0,22,10,0,45.7,8.33,0.00,0.00
15min,AgWx,beryljct,423,06NOV2018:17:45:00,48.2,13.21,42.3,41.8,42.5,45.5,41.1,42,44,38,0.377,20.8,21.3,20.2,3.266,2.8,325,5.9,3.5,0.00004,0.00008,50.2,48.1,22,3,0,40.2,8.34,0.00,0.00
15min,AgWx,beryljct,423,06NOV2018:18:00:00,45.1,13.17,40.9,41.1,40.6,41.7,39.7,44,46,42,0.371,20.4,20.9,19.8,3.464,3.3,323,2.7,3.6,0.00006,0.00010,50.1,48.2,22,0,0,37.8,8.34,0.00,0.00
15min,AgWx,beryljct,423,06NOV2018:18:15:00,42.9,13.15,41.7,41.3,41.3,41.7,40.9,42,43,41,0.368,19.9,20.1,19.7,3.486,3.5,319,2.5,3.8,0.00008,0.00013,50.0,48.2,22,0,0,38.1,8.34,0.00,0.00
15min,AgWx,beryljct,423,06NOV2018:18:30:00,41.3,13.13,40.8,40.6,40.5,41.4,39.5,43,45,41,0.363,19.7,19.9,19.4,3.639,3.6,326,3.4,4.0,0.00008,0.00013,49.9,48.3,22,0,0,37.4,8.34,0.00,0.00
15min,AgWx,beryljct,423,06NOV2018:18:45:00,40.0,13.12,40.5,40.6,40.1,40.8,39.5,43,44,42,0.362,19.5,19.7,19.3,3.223,3.5,316,8.9,4.2,0.00007,0.00012,49.7,48.4,22,0,0,37.2,8.34,0.00,0.00
15min,AgWx,beryljct,423,06NOV2018:19:00:00,39.2,13.11,40.2,39.2,40.0,40.6,39.0,43,45,42,0.356,19.2,19.6,18.8,2.916,3.1,318,8.0,3.9,0.00005,0.00009,49.5,48.5,22,0,0,37.0,8.34,0.00,0.00
15min,AgWx,beryljct,423,06NOV2018:19:15:00,38.5,13.1,40.1,40.3,39.6,40.3,38.6,43,45,42,0.352,18.9,19.2,18.8,0.921,2.2,323,9.5,3.5,-0.00003,-0.00001,49.3,48.5,22,0,0,35.9,8.34,0.00,0.00
15min,AgWx,beryljct,423,06NOV2018:19:30:00,37.8,13.09,40.0,39.5,39.7,40.5,38.7,42,45,41,0.347,18.6,19.1,18.3,0.789,0.8,355,9.4,1.7,-0.00019,-0.00027,49.1,48.5,22,0,0,35.5,8.35,0.00,0.00
15min,AgWx,beryljct,423,06NOV2018:19:45:00,37.2,13.06,39.2,38.5,38.9,39.6,38.3,43,44,42,0.347,18.3,18.5,18.2,1.885,1.3,356,18,2.4,-0.00013,-0.00016,48.8,48.6,22,0,0,35.6,8.35,0.00,0.00
15min,AgWx,beryljct,423,06NOV2018:20:00:00,36.7,13.07,38.5,38.0,38.1,38.7,37.6,44,45,43,0.340,18.2,18.4,18.0,2.148,2.3,322,8.6,3.0,-0.00002,-0.00001,48.6,48.6,22,0,0,35.5,8.35,0.00,0.00
15min,AgWx,beryljct,423,06NOV2018:20:15:00,36.4,13.05,38.1,37.5,37.7,38.4,37.0,44,45,43,0.335,17.8,18.0,17.6,3.376,2.8,325,10,3.9,0.00002,0.00005,48.3,48.6,22,0,0,35.6,8.35,0.00,0.00
15min,AgWx,beryljct,423,06NOV2018:20:30:00,36.0,13.03,36.5,34.8,36.4,37.7,34.8,46,49,44,0.332,17.5,17.8,17.3,3.354,3.6,337,7.8,4.2,0.00006,0.00010,48.1,48.6,22,0,0,35.3,8.35,0.00,0.00
15min,AgWx,beryljct,423,06NOV2018:20:45:00,35.4,13.02,34.9,35.0,34.5,35.1,34.0,49,50,47,0.327,17.3,17.6,17.0,2.411,3.1,341,9.9,3.9,0.00002,0.00005,47.9,48.6,22,0,0,35.3,8.35,0.00,0.00
15min,AgWx,beryljct,423,06NOV2018:21:00:00,34.7,13,35.4,34.7,35.0,35.2,34.7,48,48,47,0.329,17.2,17.5,16.9,2.959,1.7,0.2,16,3.2,-0.00008,-0.00009,47.6,48.6,22,0,0,35.7,8.35,0.00,0.00
15min,AgWx,beryljct,423,06NOV2018:21:15:00,34.2,13,35.0,34.5,34.6,34.8,34.4,50,51,48,0.334,17.6,18.2,17.1,1.535,1.4,357,9.9,3.3,-0.00011,-0.00013,47.4,48.5,22,0,0,35.5,8.35,0.00,0.00
15min,AgWx,beryljct,423,06NOV2018:21:30:00,33.7,13,35.4,35.5,34.8,35.5,33.8,49,51,48,0.335,17.6,17.8,17.2,0.438,1.2,299,9.9,2.5,-0.00012,-0.00016,47.1,48.5,22,0,0,35.7,8.35,0.00,0.00
15min,AgWx,beryljct,423,06NOV2018:21:45:00,33.3,12.98,35.7,35.5,35.2,35.8,33.8,48,52,47,0.334,17.6,18.1,17.2,0.088,0.2,359,39,1.4,-0.00025,-0.00039,46.9,48.5,22,0,0,35.5,8.35,0.00,0.00
15min,AgWx,beryljct,423,06NOV2018:22:00:00,33.1,12.98,36.1,35.6,35.6,35.9,35.1,47,49,47,0.339,17.6,17.9,17.4,1.074,1.2,289,56,2.2,-0.00013,-0.00017,46.7,48.4,22,0,0,35.6,8.36,0.00,0.00
15min,AgWx,beryljct,423,06NOV2018:22:15:00,33.1,12.96,36.5,35.5,36.0,36.4,35.5,47,48,46,0.336,17.6,17.9,17.3,2.083,0.9,315,44,2.7,-0.00017,-0.00023,46.5,48.4,22,0,0,35.4,8.35,0.00,0.00
15min,AgWx,beryljct,423,06NOV2018:22:30:00,33.1,12.96,35.8,35.5,35.4,35.8,34.9,48,48,47,0.334,17.5,17.8,17.3,2.828,1.6,343,16,2.9,-0.00009,-0.00010,46.3,48.3,22,0,0,35.6,8.36,0.00,0.00
15min,AgWx,beryljct,423,06NOV2018:22:45:00,33.0,12.95,35.2,33.6,34.9,35.5,33.6,48,50,47,0.329,17.3,17.6,16.7,2.872,2.8,323,11,3.5,0.00000,0.00003,46.0,48.3,22,0,0,35.6,8.35,0.00,0.00
15min,AgWx,beryljct,423,06NOV2018:23:00:00,32.7,12.94,34.0,34.1,33.4,34.1,32.7,51,53,50,0.334,17.3,17.8,16.9,2.499,2.8,323,25,4.7,-0.00000,0.00002,45.8,48.2,22,0,0,35.3,8.36,0.00,0.00
15min,AgWx,beryljct,423,06NOV2018:23:15:00,32.2,12.93,33.3,33.3,32.9,34.0,32.0,52,54,50,0.331,17.3,17.7,16.7,1.863,2.2,313,3.9,3.0,-0.00004,-0.00004,45.6,48.2,22,0,0,35.4,8.36,0.00,0.00
15min,AgWx,beryljct,423,06NOV2018:23:30:00,31.7,12.92,32.4,30.8,32.1,33.9,30.4,53,56,50,0.328,16.8,17.3,16.2,1.074,2.7,317,20,3.8,-0.00002,-0.00000,45.4,48.1,22,0,0,35.5,8.36,0.00,0.00
15min,AgWx,bigpiney,439,06NOV2018:00:00:00,22.2,12.74,22.4,22.4,21.9,22.5,21.3,84,85,83,0.348,17.8,18.5,17.2,3.244,3.3,270,9.6,4.3,0.00004,0.00005,38.1,40.5,37,0,0,0.0,.,0.00,0.00
15min,AgWx,bigpiney,439,06NOV2018:00:15:00,21.7,12.72,18.9,15.9,19.2,22.5,15.8,84,87,80,0.270,15.1,18.5,11.8,3.442,4.4,253,25,5.9,0.00004,0.00006,38.0,40.4,37,0,0,0.0,.,0.00,0.00
15min,AgWx,bigpiney,439,06NOV2018:00:30:00,20.8,12.73,17.4,16.5,16.8,17.3,15.9,87,89,85,0.272,13.7,14.6,12.7,5.217,3.6,207,24,5.2,0.00003,0.00004,38.0,40.5,37,0,0,0.0,.,0.00,0.00
15min,AgWx,bigpiney,439,06NOV2018:00:45:00,20.0,12.72,14.5,13.3,14.4,16.5,13.3,86,87,84,0.240,10.9,12.8,10.0,6.05,5.6,190,7.7,6.6,0.00004,0.00004,38.0,40.5,37,0,0,0.0,.,0.00,0.00
15min,AgWx,bigpiney,439,06NOV2018:01:00:00,18.9,12.71,13.3,12.6,12.9,13.3,12.6,87,88,86,0.232,9.7,10.3,9.2,4.691,5.0,216,6.7,7.4,0.00003,0.00004,38.0,40.4,37,0,0,0.0,.,0.00,0.00
15min,AgWx,bigpiney,439,06NOV2018:01:15:00,18.0,12.71,14.8,16.5,13.9,17.1,11.9,89,92,86,0.281,11.2,15.3,8.4,4.911,5.9,226,9.1,7.4,0.00003,0.00003,38.0,40.4,37,0,0,0.0,.,0.00,0.00
15min,AgWx,bigpiney,439,06NOV2018:01:30:00,17.5,12.7,16.2,15.6,15.8,17.2,14.4,88,90,83,0.274,12.8,14.6,10.5,4.867,4.1,239,11,5.7,0.00003,0.00004,38.0,40.4,37,0,0,0.0,.,0.00,0.00
15min,AgWx,bigpiney,439,06NOV2018:01:45:00,17.1,12.7,15.1,16.2,14.6,16.2,13.1,89,91,87,0.289,11.9,14.2,10.0,1.096,2.5,337,76,8.2,0.00002,0.00003,38.0,40.5,37,0,0,0.0,.,0.00,0.00
15min,AgWx,bigpiney,439,06NOV2018:02:00:00,16.7,12.67,17.1,15.6,16.7,17.5,15.6,90,92,88,0.274,14.2,15.4,12.7,4.713,2.8,315,21,4.9,0.00002,0.00003,37.9,40.5,37,0,0,0.0,.,0.00,0.00
15min,AgWx,bigpiney,439,06NOV2018:02:15:00,16.6,12.68,14.8,13.0,14.7,15.5,12.6,89,90,86,0.243,12.1,12.9,9.1,1.469,2.7,284,47,5.0,0.00002,0.00003,37.9,40.4,37,0,0,0.0,.,0.00,0.00
15min,AgWx,bigpiney,439,06NOV2018:02:30:00,16.2,12.67,14.5,14.1,14.0,14.6,13.1,91,92,89,0.259,11.8,12.6,10.5,1.008,2.3,231,31,4.9,0.00001,0.00002,37.9,40.5,37,0,0,0.0,.,0.00,0.00
15min,AgWx,bigpiney,439,06NOV2018:02:45:00,15.7,12.68,16.7,16.4,15.9,17.2,14.3,90,92,86,0.274,13.5,14.6,12.0,1.381,0.7,213,34,2.5,0.00001,0.00001,37.9,40.4,37,0,0,0.0,.,0.00,0.00
15min,AgWx,bigpiney,439,06NOV2018:03:00:00,15.3,12.68,14.8,12.5,14.7,17.0,12.3,87,89,82,0.230,11.5,14.3,8.5,2.236,1.9,223,12,3.9,0.00002,0.00003,37.9,40.4,37,0,0,0.0,.,0.00,0.00
15min,AgWx,bigpiney,439,06NOV2018:03:15:00,14.8,12.67,13.1,11.1,12.8,14.8,10.9,89,92,86,0.218,10.0,12.9,7.6,6.862,4.2,223,12,7.3,0.00002,0.00003,37.9,40.5,37,0,0,0.0,.,0.00,0.00
15min,AgWx,bigpiney,439,06NOV2018:03:30:00,14.4,12.68,11.8,11.9,11.3,12.4,10.6,88,90,86,0.230,8.3,10.0,7.2,5.217,4.5,229,5.2,6.9,0.00003,0.00003,37.8,40.4,37,0,0,0.0,.,0.00,0.00
15min,AgWx,bigpiney,439,06NOV2018:03:45:00,13.9,12.66,10.6,9.4,10.4,11.8,9.4,86,88,84,0.200,7.0,8.9,5.7,5.02,4.9,226,9.7,5.8,0.00003,0.00004,37.8,40.4,37,0,0,0.0,.,0.00,0.00
15min,AgWx,bigpiney,439,06NOV2018:04:00:00,13.5,12.67,10.9,10.7,10.2,10.8,9.4,87,88,86,0.214,7.0,7.8,6.0,4.889,5.1,229,9.6,6.1,0.00003,0.00003,37.8,40.4,37,0,0,0.0,.,0.00,0.00
15min,AgWx,bigpiney,439,06NOV2018:04:15:00,13.3,12.65,12.3,10.0,11.9,13.5,10.0,86,89,83,0.201,8.5,10.3,6.1,1.622,4.4,275,47,6.4,0.00003,0.00004,37.8,40.4,37,0,0,0.0,.,0.00,0.00
15min,AgWx,bigpiney,439,06NOV2018:04:30:00,13.2,12.66,12.0,12.2,11.4,12.2,10.0,86,87,84,0.226,7.9,8.7,6.1,4.143,4.9,317,10,5.8,0.00003,0.00004,37.8,40.5,37,0,0,0.0,.,0.00,0.00
15min,AgWx,bigpiney,439,06NOV2018:04:45:00,13.2,12.66,13.2,11.4,12.9,13.9,10.9,84,86,81,0.216,9.0,10.1,6.7,1.885,3.6,278,23,4.6,0.00003,0.00004,37.8,40.4,37,0,0,0.0,.,0.00,0.00
15min,AgWx,bigpiney,439,06NOV2018:05:00:00,13.1,12.66,12.2,10.4,11.8,12.8,10.4,85,87,82,0.203,8.0,9.6,6.3,2.74,2.4,239,25,5.3,0.00002,0.00003,37.7,40.3,37,0,0,0.0,.,0.00,0.00
15min,AgWx,bigpiney,439,06NOV2018:05:15:00,12.8,12.65,10.8,9.7,10.4,12.2,9.1,84,88,80,0.200,6.6,9.2,4.4,4.143,2.3,228,33,4.6,0.00002,0.00003,37.7,40.3,37,0,0,0.0,.,0.00,0.00
15min,AgWx,bigpiney,439,06NOV2018:05:30:00,12.6,12.65,11.5,12.4,10.7,12.4,9.2,85,87,82,0.227,7.1,8.9,4.7,2.872,3.2,351,83,6.2,0.00003,0.00003,37.7,40.4,37,0,0,0.0,.,0.00,0.00
15min,AgWx,bigpiney,439,06NOV2018:05:45:00,12.7,12.65,14.2,14.5,13.4,14.9,12.1,85,86,82,0.241,9.6,10.9,8.2,0.877,2.5,48,9.4,3.4,0.00003,0.00003,37.7,40.4,37,0,0,0.0,.,0.00,0.00
15min,AgWx,bigpiney,439,06NOV2018:06:00:00,13.2,12.64,16.7,15.8,16.0,16.8,14.4,82,84,80,0.255,11.4,12.1,10.0,5.941,2.8,177,53,6.0,0.00003,0.00005,37.7,40.4,37,0,0,0.0,.,0.00,0.00
15min,AgWx,bigpiney,439,06NOV2018:06:15:00,13.8,12.65,14.8,14.4,14.5,15.9,12.8,82,86,81,0.242,10.1,11.5,8.5,1.052,3.6,153,89,8.6,0.00004,0.00005,37.7,40.4,37,0,0,0.0,.,0.00,0.00
15min,AgWx,bigpiney,439,06NOV2018:06:30:00,14.2,12.64,14.5,13.6,14.1,15.0,13.3,83,85,82,0.235,10.0,10.9,9.1,1.754,1.8,220,42,4.7,0.00002,0.00003,37.7,40.4,37,0,0,0.0,.,0.00,0.00
15min,AgWx,bigpiney,439,06NOV2018:06:45:00,14.4,12.64,13.8,14.2,13.3,14.2,12.1,84,87,82,0.245,9.4,10.5,7.6,2.938,2.2,80,51,5.7,0.00002,0.00003,37.6,40.4,37,0,0,0.0,.,0.00,0.00
15min,AgWx,bigpiney,439,06NOV2018:07:00:00,14.5,12.67,13.8,14.6,13.3,14.6,11.7,85,87,82,0.250,9.6,11.0,7.4,4.647,4.3,231,35,6.2,0.00004,0.00004,37.6,40.3,37,3,0,0.0,.,0.00,0.00
15min,AgWx,bigpiney,439,06NOV2018:07:15:00,14.9,12.91,16.0,16.8,15.3,16.8,14.5,86,87,83,0.270,11.7,12.7,10.9,2.894,3.7,256,39,6.3,0.00005,0.00006,37.6,40.3,37,20,0,0.0,.,0.00,0.00
15min,AgWx,bigpiney,439,06NOV2018:07:30:00,15.6,13.06,16.9,15.6,16.6,17.1,15.6,82,84,82,0.253,12.1,13.0,11.0,6.226,4.8,243,49,6.7,-0.00009,-0.00004,37.6,40.3,37,29,0,0.0,.,0.00,0.00
15min,AgWx,bigpiney,439,06NOV2018:07:45:00,16.2,14.99,16.9,18.3,16.3,18.3,15.5,83,85,82,0.288,12.1,14.1,11.3,3.551,2.9,262,23,6.2,0.00003,0.00007,37.6,40.3,37,92,0,0.0,.,0.00,0.00
15min,AgWx,bigpiney,439,06NOV2018:08:00:00,17.7,14.98,21.9,23.4,21.1,23.4,18.4,82,86,79,0.344,16.6,18.2,14.2,3.266,4.3,247,16,6.1,0.00026,0.00033,37.6,40.3,37,158,0,0.0,.,0.00,0.00
15min,AgWx,bigpiney,439,06NOV2018:08:15:00,19.6,15,24.1,24.3,23.6,24.3,23.4,79,81,76,0.349,18.0,18.8,17.3,2.411,3.1,258,7.5,4.2,0.00019,0.00026,37.6,40.3,37,115,0,0.0,.,0.00,0.00
15min,AgWx,bigpiney,439,06NOV2018:08:30:00,21.2,14.93,20.6,20.0,20.5,24.4,18.7,83,86,77,0.316,16.1,18.6,14.6,3.968,3.1,97,34,6.2,0.00040,0.00047,37.6,40.3,37,212,0,0.0,.,0.00,0.00